Regional Weather Roundup
Issued by NWS

Home | Current Version | Previous Version | Graphics & Text | Print | Product List | Glossary On
Versions: 1 2 3 4 5 6 7 8 9 10 11 12 13 14 15 16 17 18 19 20 21 22 23 24 25 26 27 28 29 30 31 32 33 34 35 36 37 38 39 40 41 42 43 44 45 46 47 48 49 50
000
ASUS43 KFSD 231602
RWRSD

WEATHER ROUNDUP FOR SOUTH DAKOTA
NATIONAL WEATHER SERVICE SIOUX FALLS SD
1100 AM CDT SAT JUL 23 2016

NOTE: "FAIR" INDICATES FEW OR NO CLOUDS BELOW 12,000 FEET WITH NO
SIGNIFICANT WEATHER AND/OR OBSTRUCTIONS TO VISIBILITY.


SDZ001>005-009-010-012>017-231700-
NORTHWEST AND NORTH CENTRAL SOUTH DAKOTA

CITY           SKY/WX    TMP DP  RH WIND       PRES   REMARKS
BUFFALO          N/A     80  50  34 NW29G38   29.85R
FAITH            N/A     84  62  47 NW22G32   29.80S
MOBRIDGE       PTSUNNY   83  75  77 VRB5      29.72S
$$

SDZ012>016-024>037-041>051-057-063-072>074-231700-
SOUTHWEST AND SOUTH CENTRAL SOUTH DAKOTA

CITY           SKY/WX    TMP DP  RH WIND       PRES   REMARKS
RAPID CTY ARPT SUNNY     83  47  28 NW35G47   29.90R
PIERRE         SUNNY     88  72  58 VRB5      29.71F
CUSTER         SUNNY     83  43  24 E15       30.04R
ELLSWORTH AFB  SUNNY     82  48  30 NW33G41   29.88R
PHILIP         SUNNY     87  61  41 NW21G31   29.79R
PINE RIDGE     SUNNY     84  60  44 W14G23    29.90R
WINNER         FAIR      88  64  44 SE14      29.78F
$$

SDZ004>011-016>023-039-040-231700-
NORTHEAST SOUTH DAKOTA

CITY           SKY/WX    TMP DP  RH WIND       PRES   REMARKS
ABERDEEN       CLOUDY    78  69  73 S16       29.71F
WATERTOWN      CLOUDY    76  68  76 SE10      29.75S
BROOKINGS      CLOUDY    75  71  87 S13       29.76F
SISSETON         N/A     72  68  87 S9        29.71F
$$

SDZ017-020-022-023-036>040-048>070-231700-
SOUTHEAST SOUTH DAKOTA

CITY           SKY/WX    TMP DP  RH WIND       PRES   REMARKS
SIOUX FALLS    PTSUNNY   79  74  84 S8        29.81F
HURON          CLOUDY    79  71  76 S18G30    29.73F
CHAMBERLAIN    SUNNY     86  70  59 S14G22    29.77S
MITCHELL       MOSUNNY   82  72  71 S14G26    29.77F
YANKTON        CLOUDY    84  72  65 S12       29.78F
$$

ABBREVIATIONS USED IN REMARKS
   TC - TEMPERATURE IN CELSIUS
  WCI - WIND CHILL INDEX
   HX - HEAT INDEX
  VSB - VISIBILITY




USA.gov is the U.S. government's official web portal to all federal, state and local government web resources and services.